| time (UTC) | temp F | wind direction | speed MPH | gust MPH | rain 1hr in | rain 24hr in | rain mn in | humidity % | barometer mb |
| 20260831012804 | 64 | 270 | 6.0 | 8.0 | 0.00 | 0.00 | 0.00 | 53 | 1029.9 |
| 20260831012305 | 64 | 270 | 5.0 | 6.0 | 0.00 | 0.00 | 0.00 | 53 | 1029.8 |
| 20260831011804 | 64 | 270 | 5.0 | 6.0 | 0.00 | 0.00 | 0.00 | 53 | 1029.5 |
| 20260831011303 | 64 | 270 | 5.0 | 6.0 | 0.00 | 0.00 | 0.00 | 52 | 1029.4 |
| 20260831010804 | 64 | 270 | 4.0 | 5.0 | 0.00 | 0.00 | 0.00 | 52 | 1029.4 |
| 20260831010303 | 65 | 247 | 3.0 | 5.0 | 0.00 | 0.00 | 0.00 | 51 | 1029.4 |
| 20260831005803 | 65 | 270 | 5.0 | 5.0 | 0.00 | 0.00 | 0.00 | 49 | 1029.4 |
| 20260831005306 | 66 | 270 | 5.0 | 5.0 | 0.00 | 0.00 | 0.00 | 49 | 1029.4 |
| 20260831004804 | 66 | 292 | 3.0 | 5.0 | 0.00 | 0.00 | 0.00 | 48 | 1029.2 |
| 20260831004304 | 66 | 270 | 5.0 | 7.0 | 0.00 | 0.00 | 0.00 | 48 | 1029.1 |
| 20260831003303 | 67 | 285 | 6.0 | 8.0 | 0.00 | 0.00 | 0.00 | 47 | 1029.4 |
| 20260831002804 | 67 | 281 | 3.0 | 5.0 | 0.00 | 0.00 | 0.00 | 47 | 1029.4 |
| 20260831002306 | 67 | 315 | 4.0 | 6.0 | 0.00 | 0.00 | 0.00 | 47 | 1029.4 |
| 20260831001804 | 67 | 0 | 4.0 | 7.0 | 0.00 | 0.00 | 0.00 | 46 | 1029.4 |
| 20260831000804 | 69 | 358 | 7.0 | 10.0 | 0.00 | 0.00 | 0.00 | 45 | 1029.3 |
| 20260831000304 | 70 | 332 | 6.0 | 8.0 | 0.00 | 0.00 | 0.00 | 44 | 1029.4 |
| 20260830235803 | 70 | 359 | 7.0 | 10.0 | 0.00 | 0.00 | 0.00 | 44 | 1029.4 |
| 20260830235305 | 69 | 356 | 7.0 | 10.0 | 0.00 | 0.00 | 0.00 | 45 | 1029.3 |
| 20260830234804 | 68 | 342 | 9.0 | 12.0 | 0.00 | 0.00 | 0.00 | 45 | 1029.1 |
| 20260830234304 | 68 | 0 | 9.0 | 13.0 | 0.00 | 0.00 | 0.00 | 46 | 1029.3 |
| 20260830233803 | 68 | 328 | 10.0 | 12.0 | 0.00 | 0.00 | 0.00 | 46 | 1029.4 |
| 20260830233303 | 68 | 355 | 8.0 | 12.0 | 0.00 | 0.00 | 0.00 | 47 | 1029.4 |
| 20260830232803 | 68 | 324 | 9.0 | 13.0 | 0.00 | 0.00 | 0.00 | 47 | 1029.2 |
| 20260830232306 | 69 | 317 | 12.0 | 15.0 | 0.00 | 0.00 | 0.00 | 47 | 1029.2 |
| 20260830231303 | 70 | 357 | 13.0 | 18.0 | 0.00 | 0.00 | 0.00 | 43 | 1028.8 |
| 20260830230804 | 72 | 336 | 11.0 | 16.0 | 0.00 | 0.00 | 0.00 | 37 | 1029.1 |
| 20260830230304 | 73 | 323 | 5.0 | 10.0 | 0.00 | 0.00 | 0.00 | 35 | 1028.8 |
| 20260830225804 | 74 | 344 | 2.0 | 10.0 | 0.00 | 0.00 | 0.00 | 34 | 1029.1 |
| 20260830225305 | 74 | 223 | 12.0 | 17.0 | 0.00 | 0.00 | 0.00 | 34 | 1029.1 |
| 20260830224804 | 74 | 278 | 10.0 | 16.0 | 0.00 | 0.00 | 0.00 | 35 | 1029.0 |
| 20260830224303 | 73 | 286 | 9.0 | 22.0 | 0.00 | 0.00 | 0.00 | 36 | 1028.7 |
| 20260830222803 | 73 | 223 | 6.0 | 15.0 | 0.00 | 0.00 | 0.00 | 36 | 1029.0 |
| 20260830222306 | 73 | 259 | 2.0 | 10.0 | 0.00 | 0.00 | 0.00 | 36 | 1028.9 |
| 20260830221803 | 72 | 314 | 6.0 | 13.0 | 0.00 | 0.00 | 0.00 | 36 | 1029.1 |
| 20260830220804 | 72 | 242 | 7.0 | 14.0 | 0.00 | 0.00 | 0.00 | 37 | 1028.7 |
| 20260830220304 | 73 | 245 | 9.0 | 20.0 | 0.00 | 0.00 | 0.00 | 37 | 1029.0 |
| 20260830215804 | 73 | 271 | 10.0 | 17.0 | 0.00 | 0.00 | 0.00 | 37 | 1028.7 |
| 20260830215305 | 73 | 135 | 2.0 | 9.0 | 0.00 | 0.00 | 0.00 | 37 | 1028.9 |
| 20260830214803 | 73 | 90 | 8.0 | 21.0 | 0.00 | 0.00 | 0.00 | 37 | 1028.7 |
| 20260830214304 | 73 | 240 | 10.0 | 18.0 | 0.00 | 0.00 | 0.00 | 37 | 1028.8 |
| 20260830213803 | 73 | 308 | 9.0 | 21.0 | 0.00 | 0.00 | 0.00 | 37 | 1028.7 |
| 20260830213304 | 73 | 10 | 7.0 | 13.0 | 0.00 | 0.00 | 0.00 | 38 | 1028.7 |
| 20260830212804 | 73 | 99 | 8.0 | 13.0 | 0.00 | 0.00 | 0.00 | 38 | 1028.7 |
| 20260830212306 | 74 | 266 | 7.0 | 16.0 | 0.00 | 0.00 | 0.00 | 37 | 1029.1 |
| 20260830211804 | 74 | 291 | 6.0 | 16.0 | 0.00 | 0.00 | 0.00 | 37 | 1029.0 |
| 20260830211303 | 73 | 223 | 9.0 | 17.0 | 0.00 | 0.00 | 0.00 | 38 | 1029.1 |
| 20260830210805 | 73 | 242 | 7.0 | 21.0 | 0.00 | 0.00 | 0.00 | 37 | 1028.7 |
| 20260830210304 | 74 | 96 | 11.0 | 25.0 | 0.00 | 0.00 | 0.00 | 37 | 1028.7 |
| 20260830205305 | 75 | 270 | 3.0 | 13.0 | 0.00 | 0.00 | 0.00 | 36 | 1028.7 |
| 20260830204803 | 74 | 190 | 6.0 | 10.0 | 0.00 | 0.00 | 0.00 | 36 | 1028.7 |
| 20260830204303 | 75 | 180 | 9.0 | 17.0 | 0.00 | 0.00 | 0.00 | 36 | 1028.5 |
| 20260830203804 | 75 | 131 | 9.0 | 17.0 | 0.00 | 0.00 | 0.00 | 36 | 1028.5 |
| 20260830202804 | 73 | 3 | 6.0 | 12.0 | 0.00 | 0.00 | 0.00 | 38 | 1028.6 |
| 20260830202305 | 74 | 29 | 9.0 | 30.0 | 0.00 | 0.00 | 0.00 | 37 | 1028.7 |
| 20260830201803 | 74 | 170 | 5.0 | 20.0 | 0.00 | 0.00 | 0.00 | 37 | 1029.1 |
| 20260830201304 | 74 | 218 | 6.0 | 12.0 | 0.00 | 0.00 | 0.00 | 38 | 1028.9 |
| 20260830200804 | 74 | 34 | 5.0 | 15.0 | 0.00 | 0.00 | 0.00 | 39 | 1028.7 |
| 20260830200303 | 73 | 266 | 10.0 | 22.0 | 0.00 | 0.00 | 0.00 | 39 | 1028.7 |
| 20260830195804 | 74 | 203 | 8.0 | 22.0 | 0.00 | 0.00 | 0.00 | 38 | 1029.1 |
| 20260830195305 | 75 | 268 | 16.0 | 26.0 | 0.00 | 0.00 | 0.00 | 37 | 1029.1 |
| 20260830194804 | 75 | 211 | 6.0 | 9.0 | 0.00 | 0.00 | 0.00 | 38 | 1029.1 |
| 20260830194304 | 73 | 90 | 5.0 | 9.0 | 0.00 | 0.00 | 0.00 | 39 | 1029.1 |
| 20260830193804 | 72 | 158 | 3.0 | 16.0 | 0.00 | 0.00 | 0.00 | 40 | 1029.1 |
| 20260830192804 | 71 | 226 | 5.0 | 20.0 | 0.00 | 0.00 | 0.00 | 41 | 1029.2 |
| 20260830192305 | 71 | 135 | 10.0 | 16.0 | 0.00 | 0.00 | 0.00 | 41 | 1029.2 |
| 20260830191304 | 70 | 113 | 6.0 | 8.0 | 0.00 | 0.00 | 0.00 | 42 | 1029.4 |
| 20260830190804 | 70 | 38 | 3.0 | 7.0 | 0.00 | 0.00 | 0.00 | 42 | 1029.4 |
| 20260830185306 | 69 | 85 | 12.0 | 18.0 | 0.00 | 0.00 | 0.00 | 44 | 1029.5 |
| 20260830184803 | 69 | 114 | 6.0 | 9.0 | 0.00 | 0.00 | 0.00 | 44 | 1030.1 |
| 20260830183804 | 69 | 115 | 5.0 | 12.0 | 0.00 | 0.00 | 0.00 | 45 | 1029.8 |
| 20260830183304 | 69 | 90 | 11.0 | 15.0 | 0.00 | 0.00 | 0.00 | 45 | 1029.9 |
| 20260830182804 | 68 | 86 | 10.0 | 13.0 | 0.00 | 0.00 | 0.00 | 47 | 1030.0 |
| 20260830182306 | 68 | 148 | 6.0 | 15.0 | 0.00 | 0.00 | 0.00 | 47 | 1030.1 |
| 20260830180303 | 67 | 135 | 6.0 | 9.0 | 0.00 | 0.00 | 0.00 | 46 | 1030.1 |
| 20260830175804 | 67 | 90 | 9.0 | 18.0 | 0.00 | 0.00 | 0.00 | 47 | 1030.1 |
| 20260830175305 | 66 | 112 | 6.0 | 12.0 | 0.00 | 0.00 | 0.00 | 49 | 1030.1 |
| 20260830174803 | 66 | 90 | 8.0 | 12.0 | 0.00 | 0.00 | 0.00 | 48 | 1030.1 |
| 20260830174303 | 66 | 123 | 5.0 | 8.0 | 0.00 | 0.00 | 0.00 | 47 | 1030.4 |
| 20260830173804 | 66 | 112 | 4.0 | 7.0 | 0.00 | 0.00 | 0.00 | 48 | 1030.4 |
| 20260830173303 | 66 | 128 | 7.0 | 10.0 | 0.00 | 0.00 | 0.00 | 48 | 1030.4 |
| 20260830172804 | 66 | 45 | 6.0 | 9.0 | 0.00 | 0.00 | 0.00 | 47 | 1030.4 |
| 20260830172306 | 66 | 304 | 4.0 | 8.0 | 0.00 | 0.00 | 0.00 | 48 | 1030.8 |
| 20260830171803 | 65 | 0 | 3.0 | 7.0 | 0.00 | 0.00 | 0.00 | 48 | 1030.6 |
| 20260830171303 | 65 | 310 | 5.0 | 8.0 | 0.00 | 0.00 | 0.00 | 49 | 1030.7 |
| 20260830170304 | 65 | 351 | 5.0 | 9.0 | 0.00 | 0.00 | 0.00 | 50 | 1030.4 |
| 20260830165804 | 64 | 6 | 3.0 | 12.0 | 0.00 | 0.00 | 0.00 | 50 | 1030.4 |
| 20260830165306 | 64 | 98 | 1.0 | 5.0 | 0.00 | 0.00 | 0.00 | 51 | 1030.6 |
| 20260830164804 | 63 | 163 | 3.0 | 5.0 | 0.00 | 0.00 | 0.00 | 52 | 1030.7 |
| 20260830164303 | 63 | 180 | 1.0 | 6.0 | 0.00 | 0.00 | 0.00 | 52 | 1030.6 |
| 20260830163304 | 63 | 135 | 4.0 | 8.0 | 0.00 | 0.00 | 0.00 | 53 | 1030.4 |
| 20260830162804 | 62 | 138 | 5.0 | 8.0 | 0.00 | 0.00 | 0.00 | 53 | 1030.4 |
| 20260830162306 | 63 | 169 | 7.0 | 14.0 | 0.00 | 0.00 | 0.00 | 53 | 1030.4 |
| 20260830161804 | 62 | 135 | 5.0 | 9.0 | 0.00 | 0.00 | 0.00 | 52 | 1030.4 |
| 20260830160803 | 62 | 262 | 3.0 | 6.0 | 0.00 | 0.00 | 0.00 | 54 | 1030.4 |
| 20260830160304 | 62 | 90 | 4.0 | 5.0 | 0.00 | 0.00 | 0.00 | 54 | 1030.2 |
| 20260830155804 | 62 | 337 | 0.0 | 2.0 | 0.00 | 0.00 | 0.00 | 53 | 1030.4 |
| 20260830155306 | 61 | 315 | 2.0 | 3.0 | 0.00 | 0.00 | 0.00 | 54 | 1030.4 |
| 20260830154804 | 61 | 292 | 3.0 | 6.0 | 0.00 | 0.00 | 0.00 | 54 | 1030.3 |
| 20260830154304 | 61 | 240 | 3.0 | 5.0 | 0.00 | 0.00 | 0.00 | 54 | 1030.3 |
| 20260830153804 | 61 | 315 | 5.0 | 8.0 | 0.00 | 0.00 | 0.00 | 55 | 1030.2 |
| 20260830153304 | 61 | 315 | 5.0 | 6.0 | 0.00 | 0.00 | 0.00 | 55 | 1030.1 |
| 20260830152804 | 61 | 283 | 4.0 | 6.0 | 0.00 | 0.00 | 0.00 | 54 | 1030.4 |
| 20260830152306 | 60 | 315 | 5.0 | 8.0 | 0.00 | 0.00 | 0.00 | 55 | 1030.3 |
| 20260830151803 | 60 | 315 | 3.0 | 6.0 | 0.00 | 0.00 | 0.00 | 56 | 1030.2 |
| 20260830151303 | 60 | 309 | 3.0 | 6.0 | 0.00 | 0.00 | 0.00 | 56 | 1030.1 |
| 20260830150803 | 60 | 337 | 6.0 | 8.0 | 0.00 | 0.00 | 0.00 | 56 | 1030.1 |
| 20260830145804 | 60 | 288 | 3.0 | 6.0 | 0.00 | 0.00 | 0.00 | 56 | 1030.1 |
| 20260830145306 | 60 | 273 | 6.0 | 9.0 | 0.00 | 0.00 | 0.00 | 56 | 1030.1 |
| 20260830144304 | 60 | 270 | 6.0 | 8.0 | 0.00 | 0.00 | 0.00 | 55 | 1030.1 |
| 20260830143804 | 60 | 309 | 7.0 | 10.0 | 0.00 | 0.00 | 0.00 | 55 | 1030.2 |
| 20260830143303 | 60 | 290 | 6.0 | 10.0 | 0.00 | 0.00 | 0.00 | 55 | 1030.4 |
| 20260830142804 | 60 | 315 | 5.0 | 9.0 | 0.00 | 0.00 | 0.00 | 55 | 1030.4 |
| 20260830142306 | 60 | 287 | 6.0 | 8.0 | 0.00 | 0.00 | 0.00 | 54 | 1030.4 |
| 20260830141804 | 60 | 270 | 5.0 | 7.0 | 0.00 | 0.00 | 0.00 | 54 | 1030.3 |
| 20260830141304 | 60 | 289 | 2.0 | 7.0 | 0.00 | 0.00 | 0.00 | 54 | 1030.2 |
| 20260830140304 | 61 | 270 | 5.0 | 12.0 | 0.00 | 0.00 | 0.00 | 52 | 1030.4 |
| 20260830135804 | 61 | 258 | 6.0 | 10.0 | 0.00 | 0.00 | 0.00 | 52 | 1030.6 |
| 20260830135306 | 60 | 253 | 8.0 | 14.0 | 0.00 | 0.00 | 0.00 | 53 | 1030.4 |
| 20260830134804 | 59 | 265 | 7.0 | 10.0 | 0.00 | 0.00 | 0.00 | 55 | 1030.2 |
| 20260830134302 | 59 | 225 | 3.0 | 6.0 | 0.00 | 0.00 | 0.00 | 55 | 1030.4 |
| 20260830133803 | 60 | 225 | 5.0 | 9.0 | 0.00 | 0.00 | 0.00 | 54 | 1030.4 |
| 20260830133302 | 60 | 129 | 5.0 | 8.0 | 0.00 | 0.00 | 0.00 | 53 | 1030.4 |
| 20260830132802 | 60 | 299 | 7.0 | 8.0 | 0.00 | 0.00 | 0.00 | 54 | 1030.2 |
| 20260830132305 | 59 | 227 | 5.0 | 8.0 | 0.00 | 0.00 | 0.00 | 55 | 1030.1 |
| 20260830130802 | 57 | 225 | 8.0 | 9.0 | 0.00 | 0.00 | 0.00 | 59 | 1030.1 |
| 20260830125802 | 57 | 225 | 6.0 | 8.0 | 0.00 | 0.00 | 0.00 | 59 | 1030.1 |
| 20260830125305 | 57 | 225 | 2.0 | 3.0 | 0.00 | 0.00 | 0.00 | 60 | 1030.0 |
| 20260830124802 | 57 | 223 | 3.0 | 7.0 | 0.00 | 0.00 | 0.00 | 59 | 1030.1 |
| 20260830124303 | 58 | 225 | 4.0 | 7.0 | 0.00 | 0.00 | 0.00 | 57 | 1029.8 |
| 20260830123803 | 59 | 270 | 5.0 | 6.0 | 0.00 | 0.00 | 0.00 | 55 | 1029.8 |
| 20260830122803 | 59 | 355 | 5.0 | 7.0 | 0.00 | 0.00 | 0.00 | 56 | 1029.8 |
| 20260830122306 | 59 | 270 | 3.0 | 6.0 | 0.00 | 0.00 | 0.00 | 57 | 1029.8 |
| 20260830121803 | 58 | 270 | 5.0 | 6.0 | 0.00 | 0.00 | 0.00 | 58 | 1029.8 |
| 20260830121302 | 59 | 252 | 7.0 | 8.0 | 0.00 | 0.00 | 0.00 | 56 | 1029.8 |
| 20260830120803 | 59 | 45 | 3.0 | 6.0 | 0.00 | 0.00 | 0.00 | 56 | 1029.8 |
| 20260830120302 | 58 | 90 | 4.0 | 5.0 | 0.00 | 0.00 | 0.00 | 58 | 1029.8 |
| 20260830115802 | 58 | 138 | 3.0 | 7.0 | 0.00 | 0.00 | 0.00 | 58 | 1029.6 |
| 20260830115305 | 59 | 178 | 1.0 | 5.0 | 0.00 | 0.00 | 0.00 | 57 | 1029.8 |
| 20260830114802 | 59 | 135 | 4.0 | 10.0 | 0.00 | 0.00 | 0.00 | 55 | 1029.8 |
| 20260830113303 | 60 | 270 | 6.0 | 9.0 | 0.00 | 0.00 | 0.00 | 54 | 1029.4 |
| 20260830112803 | 60 | 225 | 6.0 | 8.0 | 0.00 | 0.00 | 0.00 | 54 | 1029.4 |
| 20260830112306 | 60 | 292 | 5.0 | 7.0 | 0.00 | 0.00 | 0.00 | 53 | 1029.4 |
| 20260830111803 | 60 | 135 | 0.0 | 7.0 | 0.00 | 0.00 | 0.00 | 53 | 1029.4 |
| 20260830110803 | 58 | 225 | 5.0 | 8.0 | 0.00 | 0.00 | 0.00 | 59 | 1029.4 |
| 20260830105802 | 58 | 225 | 2.0 | 8.0 | 0.00 | 0.00 | 0.00 | 58 | 1029.4 |
| 20260830105305 | 58 | 225 | 5.0 | 8.0 | 0.00 | 0.00 | 0.00 | 58 | 1029.4 |
| 20260830104302 | 58 | 217 | 6.0 | 7.0 | 0.00 | 0.00 | 0.00 | 59 | 1029.4 |
| 20260830103802 | 59 | 269 | 2.0 | 6.0 | 0.00 | 0.00 | 0.00 | 57 | 1029.4 |
| 20260830103302 | 60 | 225 | 6.0 | 9.0 | 0.00 | 0.00 | 0.00 | 55 | 1029.1 |
| 20260830102802 | 61 | 275 | 4.0 | 10.0 | 0.00 | 0.00 | 0.00 | 54 | 1029.1 |
| 20260830102306 | 61 | 314 | 10.0 | 13.0 | 0.00 | 0.00 | 0.00 | 54 | 1029.3 |
| 20260830101803 | 61 | 311 | 9.0 | 14.0 | 0.00 | 0.00 | 0.00 | 54 | 1029.4 |
| 20260830101302 | 61 | 278 | 11.0 | 16.0 | 0.00 | 0.00 | 0.00 | 55 | 1029.1 |
| 20260830100802 | 60 | 276 | 7.0 | 12.0 | 0.00 | 0.00 | 0.00 | 56 | 1029.4 |
| 20260830095803 | 59 | 285 | 8.0 | 10.0 | 0.00 | 0.00 | 0.00 | 56 | 1029.4 |
| 20260830094802 | 59 | 337 | 5.0 | 6.0 | 0.00 | 0.00 | 0.00 | 56 | 1029.3 |
| 20260830094303 | 60 | 317 | 5.0 | 6.0 | 0.00 | 0.00 | 0.00 | 55 | 1029.3 |
| 20260830093803 | 60 | 225 | 2.0 | 3.0 | 0.00 | 0.00 | 0.00 | 54 | 1029.2 |
| 20260830093302 | 60 | 270 | 4.0 | 5.0 | 0.00 | 0.00 | 0.00 | 54 | 1029.3 |
| 20260830092803 | 61 | 235 | 6.0 | 8.0 | 0.00 | 0.00 | 0.00 | 53 | 1029.4 |
| 20260830092305 | 62 | 225 | 5.0 | 6.0 | 0.00 | 0.00 | 0.00 | 51 | 1029.1 |
| 20260830091802 | 62 | 180 | 3.0 | 7.0 | 0.00 | 0.00 | 0.00 | 51 | 1029.4 |
| 20260830091302 | 62 | 135 | 2.0 | 6.0 | 0.00 | 0.00 | 0.00 | 52 | 1029.4 |
| 20260830090303 | 62 | 161 | 5.0 | 7.0 | 0.00 | 0.00 | 0.00 | 52 | 1029.4 |
| 20260830085803 | 61 | 203 | 5.0 | 7.0 | 0.00 | 0.00 | 0.00 | 52 | 1029.3 |
| 20260830085306 | 62 | 180 | 3.0 | 6.0 | 0.00 | 0.00 | 0.00 | 52 | 1029.3 |
| 20260830084803 | 62 | 180 | 6.0 | 8.0 | 0.00 | 0.00 | 0.00 | 52 | 1029.4 |
| 20260830084302 | 63 | 155 | 7.0 | 12.0 | 0.00 | 0.00 | 0.00 | 51 | 1029.4 |
| 20260830083802 | 63 | 180 | 7.0 | 16.0 | 0.00 | 0.00 | 0.00 | 51 | 1029.3 |
| 20260830083303 | 63 | 139 | 9.0 | 18.0 | 0.00 | 0.00 | 0.00 | 50 | 1029.3 |
| 20260830082803 | 63 | 135 | 8.0 | 16.0 | 0.00 | 0.00 | 0.00 | 50 | 1029.3 |
| 20260830082306 | 63 | 162 | 7.0 | 17.0 | 0.00 | 0.00 | 0.00 | 51 | 1029.4 |
| 20260830081803 | 63 | 153 | 8.0 | 13.0 | 0.00 | 0.00 | 0.00 | 50 | 1029.4 |
| 20260830081302 | 63 | 128 | 6.0 | 9.0 | 0.00 | 0.00 | 0.00 | 50 | 1029.1 |
| 20260830080803 | 63 | 225 | 3.0 | 12.0 | 0.00 | 0.00 | 0.00 | 50 | 1029.4 |
| 20260830080302 | 63 | 180 | 7.0 | 10.0 | 0.00 | 0.00 | 0.00 | 50 | 1029.6 |
| 20260830075803 | 63 | 169 | 4.0 | 7.0 | 0.00 | 0.00 | 0.00 | 48 | 1029.4 |
| 20260830075306 | 63 | 174 | 4.0 | 6.0 | 0.00 | 0.00 | 0.00 | 48 | 1029.4 |
| 20260830074302 | 64 | 180 | 7.0 | 12.0 | 0.00 | 0.00 | 0.00 | 47 | 1029.6 |
| 20260830073802 | 64 | 207 | 9.0 | 14.0 | 0.00 | 0.00 | 0.00 | 47 | 1029.6 |
| 20260830073303 | 64 | 176 | 4.0 | 7.0 | 0.00 | 0.00 | 0.00 | 46 | 1029.8 |
| 20260830072803 | 64 | 215 | 5.0 | 6.0 | 0.00 | 0.00 | 0.00 | 45 | 1029.8 |
| 20260830072306 | 64 | 196 | 3.0 | 5.0 | 0.00 | 0.00 | 0.00 | 45 | 1029.8 |
| 20260830071303 | 64 | 183 | 9.0 | 17.0 | 0.00 | 0.00 | 0.00 | 45 | 1029.8 |
| 20260830070302 | 64 | 131 | 1.0 | 8.0 | 0.00 | 0.00 | 0.00 | 46 | 1029.8 |
| 20260830065802 | 64 | 168 | 7.0 | 12.0 | 0.00 | 0.00 | 0.00 | 46 | 1029.8 |
| 20260830065306 | 64 | 190 | 12.0 | 20.0 | 0.00 | 0.00 | 0.00 | 48 | 1029.9 |
| 20260830064803 | 64 | 135 | 4.0 | 8.0 | 0.00 | 0.00 | 0.00 | 48 | 1029.8 |
| 20260830064303 | 65 | 135 | 6.0 | 8.0 | 0.00 | 0.00 | 0.00 | 46 | 1029.9 |
| 20260830063303 | 65 | 139 | 9.0 | 13.0 | 0.00 | 0.00 | 0.00 | 46 | 1030.1 |
| 20260830062803 | 65 | 140 | 6.0 | 8.0 | 0.00 | 0.00 | 0.00 | 45 | 1030.1 |
| 20260830061803 | 65 | 197 | 12.0 | 28.0 | 0.00 | 0.00 | 0.00 | 45 | 1030.1 |
| 20260830060858 | 65 | 180 | 5.0 | 6.0 | 0.00 | 0.00 | 0.00 | 45 | 1030.1 |
| 20260830060303 | 65 | 225 | 6.0 | 13.0 | 0.00 | 0.00 | 0.00 | 45 | 1030.4 |
| 20260830055306 | 64 | 219 | 9.0 | 13.0 | 0.00 | 0.00 | 0.00 | 47 | 1030.3 |
| 20260830054802 | 65 | 225 | 4.0 | 7.0 | 0.00 | 0.00 | 0.00 | 47 | 1030.4 |
| 20260830054303 | 65 | 225 | 1.0 | 5.0 | 0.00 | 0.00 | 0.00 | 47 | 1030.4 |
| 20260830053302 | 63 | 219 | 7.0 | 12.0 | 0.00 | 0.00 | 0.00 | 51 | 1030.4 |
| 20260830052803 | 65 | 225 | 6.0 | 8.0 | 0.00 | 0.00 | 0.00 | 48 | 1030.4 |
| 20260830052306 | 66 | 221 | 6.0 | 8.0 | 0.00 | 0.00 | 0.00 | 46 | 1030.4 |
| 20260830051303 | 64 | 246 | 5.0 | 10.0 | 0.00 | 0.00 | 0.00 | 50 | 1030.4 |
| 20260830050803 | 63 | 225 | 8.0 | 10.0 | 0.00 | 0.00 | 0.00 | 52 | 1030.3 |
| 20260830050303 | 62 | 225 | 6.0 | 8.0 | 0.00 | 0.00 | 0.00 | 53 | 1030.4 |
| 20260830045803 | 62 | 225 | 7.0 | 8.0 | 0.00 | 0.00 | 0.00 | 54 | 1030.4 |
| 20260830045305 | 61 | 225 | 6.0 | 9.0 | 0.00 | 0.00 | 0.00 | 54 | 1030.4 |
| 20260830044803 | 61 | 225 | 6.0 | 8.0 | 0.00 | 0.00 | 0.00 | 54 | 1030.4 |
| 20260830044303 | 62 | 225 | 6.0 | 9.0 | 0.00 | 0.00 | 0.00 | 53 | 1030.3 |
| 20260830043803 | 63 | 194 | 7.0 | 9.0 | 0.00 | 0.00 | 0.00 | 52 | 1030.4 |
| 20260830042803 | 66 | 225 | 6.0 | 8.0 | 0.00 | 0.00 | 0.00 | 47 | 1030.4 |
| 20260830042305 | 66 | 229 | 5.0 | 8.0 | 0.00 | 0.00 | 0.00 | 46 | 1030.4 |
| 20260830041303 | 63 | 237 | 9.0 | 12.0 | 0.00 | 0.00 | 0.00 | 52 | 1030.4 |
| 20260830040803 | 63 | 247 | 7.0 | 9.0 | 0.00 | 0.00 | 0.00 | 51 | 1030.4 |
| 20260830040302 | 63 | 225 | 7.0 | 10.0 | 0.00 | 0.00 | 0.00 | 52 | 1030.4 |
| 20260830035803 | 62 | 251 | 6.0 | 8.0 | 0.00 | 0.00 | 0.00 | 53 | 1030.4 |
| 20260830035306 | 62 | 270 | 6.0 | 9.0 | 0.00 | 0.00 | 0.00 | 53 | 1030.4 |
| 20260830034802 | 62 | 247 | 6.0 | 12.0 | 0.00 | 0.00 | 0.00 | 54 | 1030.4 |
| 20260830034303 | 62 | 264 | 3.0 | 12.0 | 0.00 | 0.00 | 0.00 | 55 | 1030.3 |
| 20260830033802 | 61 | 247 | 7.0 | 10.0 | 0.00 | 0.00 | 0.00 | 55 | 1030.4 |
| 20260830032803 | 61 | 263 | 6.0 | 9.0 | 0.00 | 0.00 | 0.00 | 55 | 1030.3 |
| 20260830032305 | 62 | 247 | 6.0 | 9.0 | 0.00 | 0.00 | 0.00 | 55 | 1030.1 |
| 20260830031802 | 61 | 225 | 5.0 | 9.0 | 0.00 | 0.00 | 0.00 | 56 | 1030.1 |
| 20260830031303 | 62 | 225 | 5.0 | 8.0 | 0.00 | 0.00 | 0.00 | 55 | 1030.1 |
| 20260830030803 | 62 | 225 | 5.0 | 8.0 | 0.00 | 0.00 | 0.00 | 56 | 1030.2 |
| 20260830030303 | 61 | 225 | 6.0 | 8.0 | 0.00 | 0.00 | 0.00 | 57 | 1030.1 |
| 20260830025803 | 62 | 225 | 5.0 | 8.0 | 0.00 | 0.00 | 0.00 | 56 | 1030.1 |
| 20260830025306 | 62 | 233 | 6.0 | 7.0 | 0.00 | 0.00 | 0.00 | 56 | 1030.1 |
| 20260830024803 | 62 | 247 | 6.0 | 7.0 | 0.00 | 0.00 | 0.00 | 55 | 1030.1 |
| 20260830023303 | 62 | 225 | 3.0 | 5.0 | 0.00 | 0.00 | 0.00 | 54 | 1029.8 |
| 20260830022802 | 63 | 225 | 5.0 | 6.0 | 0.00 | 0.00 | 0.00 | 54 | 1030.1 |
| 20260830022305 | 62 | 264 | 4.0 | 6.0 | 0.00 | 0.00 | 0.00 | 54 | 1029.9 |
| 20260830021803 | 62 | 225 | 3.0 | 5.0 | 0.00 | 0.00 | 0.00 | 56 | 1030.1 |
| 20260830021303 | 61 | 225 | 6.0 | 8.0 | 0.00 | 0.00 | 0.00 | 57 | 1030.0 |
| 20260830020803 | 62 | 247 | 4.0 | 6.0 | 0.00 | 0.00 | 0.00 | 56 | 1029.8 |
| 20260830015306 | 61 | 247 | 6.0 | 8.0 | 0.00 | 0.00 | 0.00 | 58 | 1029.8 |
| 20260830014803 | 62 | 247 | 6.0 | 8.0 | 0.00 | 0.00 | 0.00 | 58 | 1029.8 |
| 20260830014302 | 62 | 247 | 6.0 | 6.0 | 0.00 | 0.00 | 0.00 | 58 | 1029.8 |
| 20260830013302 | 62 | 225 | 5.0 | 6.0 | 0.00 | 0.00 | 0.00 | 58 | 1029.8 |